OV1-20/OV1-21 DEB, 5384

Orbit data source: Space-Track

OV1-20/OV1-21 DEB, 5384 is space debris in LEO originally from a launch on Sat, 07 Aug 1971 UTC launched from the Air Force Western Test Range (AFWTR). Debris objects in space refer to the collection of defunct objects orbiting the Earth. Examples of debris include non-operational satellites, rocket bodies, and fragments generated from explosions, collisions, or faulty payload assembly.

Loading next visibility...
Identifier
5384, 1971-067N
Orbit
LEO
Country
Flag of USUS
Related business
Manufacturer
GOYR?
Mission
Spacecraft
Bus & Motor
AVL-802 CANISTER, Unknown motor
Mass
~12 kg wet, ~12 kg dry
Launch date (UTC)
1971-08-07 (54 years ago)
Launch vehicle
Unknown
Launch site
Air Force Western Test Range (AFWTR)
Object type
Payload
Rocket body
Debris
Shape & HBR
Unknown shape, 0.5 m
Radar Cross Section
Medium (>0.1 m² and <1 m²)

Expand to show TLE details & history
Last TLE update: 20 hours ago

TLE from 20 hours ago
0 OV1-20/OV1-21 DEB
1 05384U 71067N   25348.77438498  .00000342  00000-0  13430-3 0  9996
2 05384  87.6257  83.8574 0077294 316.7778  42.7364 14.25187377816961
Epoch: 2025-12-14T18:35Z
TLE epoch observation values (Epoch: 2025-12-14T18:35:06.862Z)
Latitude
0.00001°
Longitude
81.39633°
Altitude
770.31 km
Speed
7.49 km/s
True Right ascension
05h 35m 25s
True Declination
0° 00' 00"
Sunlit
Object was in full shadow at epoch
Visualization orbit readout
Latitude
Unknown
Longitude
Unknown
Altitude
Unknown
Speed
Unknown
Apparent Right ascension
Unknown
Apparent Declination
Unknown
Sunlit
N/A
Visualization observer readout
Local Sidereal Time
13:18:24
Azimuth
Unknown
Elevation
Unknown
Doppler factor
Unknown
Orbital elements
Apogee altitude
860.339 km
Perigee altitude
749.299 km
Semi-major axis
7,182.956 km
Eccentricity
0.00773
Inclination
87.6257°
RAAN
83.8574°
Arg. of periapsis
316.7778°
True anomaly
43.34176°
Mean anomaly
42.7364°
Eccentric anomaly
43.03865°
Mean motion
3.56524 °/min
Orbital period
100.98 mins
BSTAR
0.0001343
Loading maneuver chart data...
Computing Atmospheric mass density...
Loading historical data...
Loading historical data...
Loading historical data...
Loading historical data...
Loading historical data...
Loading historical data...
Loading historical data...

Documentation

Showing up to 5 results
|